QUETZAL-1 (45598 NORAD) Tracking and Keplerian Element Data

This shows tracking and keplerian element data for the satellite.

Feedback or suggestion? Click here.




ElementValue
Catalog45598
NameQUETZAL-1
Epoch Orbit10462
Epoch Day58.26358165
Epoch Year2022
RAAN103.9349
Inclination51.6159
Eccentricity0.0001315
Argument of Perigee314.4869
Mean Anonmoly45.6051
Mean Motion16.4250854
Decay Rate0.11674468
L11 45598U 98067RL 22058.26358165 .11674468 12483-4 61790-3 0 9999
L22 45598 51.6159 103.9349 0001315 314.4869 45.6051 16.42508540104623



Live tracking and technical data element details for QUETZAL-1 (NORAD 45598). QUETZAL-1 can be tracked NOW for your location showing map with azimuth and elevation plus other details from your city location.







IsCatalogInMostPopularTable: catalog: 45598, numindb: 190
Update: records affected: 1



GetName: 45598 QUETZAL-1

Hit Count: updated at: Mon, 28 Nov 2022 05:27:40 GMT